Flag for Germany Weather past 2 weeks in Garmisch-Partenkirchen, Bavaria, Germany

Now
70 °F

Passing clouds.


Feels Like: 70 °F
Forecast: 52 / 76 °F
Wind: 9 mph from East

Location: Innsbruck-Flughafen

Current Time: Jul 31, 2015 at 1:55:01 PM

Latest Report: Jul 31, 2015 at 1:20 PM


Visibility: N/A

Pressure: 30.01 "Hg (27.67 "Hg at 699m altitude)

Humidity: 43%

Dew point: 46 °F

Location of Garmisch-PartenkirchenLocation

Historic Weather in Garmisch-Partenkirchen — Graph

°F

Garmisch-Partenkirchen temperature yesterday

Maximum temperature yesterday: 64 °F (at 12:20 PM)
Minimum temperature yesterday: 54 °F (at 6:20 AM)
Average temperature yesterday: 60 °F

Past Weeks' High & Low Weather Summary

 TemperatureHumidityPressure
High93 °F (Jul 17, 3:20 PM)100% (Jul 17, 11:20 PM)30.27 "Hg (Jul 17, 11:20 PM)
Low52 °F (Jul 31, 4:50 AM)24% (Jul 17, 3:50 PM)29.77 "Hg (Jul 25, 12:20 PM)
Average69 °F73%29.98 "Hg
* Reported Jul 16 12:20 PM — Jul 31 12:50 PM, Garmisch-Partenkirchen, Weather by CustomWeather, © 2015

Note: Actual official high and low records may vary slightly from our data, if they occured in-between our weather recording intervals... More about our weather records

Advertising

Garmisch-Partenkirchen weather history for previous 24 hours

 ConditionsComfort  
Time TempWeatherWind HumidityBarometerVisibility
12:50 PM
Fri, Jul 31
70 °FPassing clouds.8 mph43%30.01 "HgN/A
12:20 PM68 °FPassing clouds.8 mph53%30.04 "HgN/A
11:50 AM68 °FPassing clouds.6 mph53%30.04 "HgN/A
11:20 AM66 °FPassing clouds.7 mph52%30.07 "HgN/A
10:50 AM64 °FPassing clouds.2 mph64%30.07 "HgN/A
10:20 AM63 °FPassing clouds.3 mph64%30.07 "HgN/A
9:50 AM63 °FPassing clouds.2 mph64%30.09 "HgN/A
9:20 AM61 °FPassing clouds.3 mph68%30.09 "HgN/A
8:50 AM59 °FPassing clouds.3 mph72%30.09 "HgN/A
8:20 AM57 °FPassing clouds.5 mph77%30.09 "HgN/A
7:50 AM57 °FPassing clouds.3 mph77%30.09 "HgN/A
7:20 AM57 °FScattered clouds.5 mph82%30.09 "HgN/A
6:50 AM54 °FPassing clouds.1 mph88%30.09 "HgN/A
6:20 AM52 °FPassing clouds.1 mph94%30.09 "HgN/A
5:50 AM52 °FPassing clouds.1 mph94%30.09 "HgN/A
5:20 AM52 °FPassing clouds.1 mph94%30.09 "HgN/A
4:50 AM52 °FPassing clouds.1 mph94%30.07 "HgN/A
4:20 AM54 °FPassing clouds.1 mph94%30.07 "HgN/A
3:50 AM55 °FPassing clouds.2 mph88%30.07 "HgN/A
3:20 AM55 °FPassing clouds.2 mph88%30.09 "HgN/A
2:50 AM57 °FPassing clouds.3 mph82%30.09 "HgN/A
2:20 AM57 °FPassing clouds.1 mph88%30.09 "HgN/A
1:50 AM57 °FPassing clouds.1 mph88%30.09 "HgN/A
1:20 AM57 °FPassing clouds.3 mph82%30.09 "HgN/A
12:50 AM57 °FPartly cloudy.2 mph82%30.07 "HgN/A
12:20 AM57 °FPassing clouds.1 mph82%30.07 "HgN/A
11:50 PM
Thu, Jul 30
57 °FPassing clouds.1 mph88%30.07 "HgN/A
11:20 PM59 °FPassing clouds.1 mph82%30.07 "HgN/A
10:50 PM59 °FPartly cloudy.3 mph77%30.07 "HgN/A
10:20 PM59 °FPartly cloudy.2 mph82%30.07 "HgN/A
9:50 PM59 °FBroken clouds.3 mph77%30.04 "HgN/A
9:20 PM61 °FPartly sunny.2 mph77%30.04 "HgN/A
8:50 PM61 °FPartly sunny.2 mph77%30.04 "HgN/A
8:20 PM61 °FBroken clouds.5 mph77%30.04 "HgN/A
7:50 PM61 °FBroken clouds.5 mph77%30.01 "HgN/A
7:20 PM61 °FBroken clouds.5 mph77%30.01 "HgN/A
6:50 PM63 °FBroken clouds.2 mph68%30.01 "HgN/A
6:20 PM63 °FBroken clouds.2 mph73%30.01 "HgN/A
5:50 PM63 °FBroken clouds.2 mph73%30.01 "HgN/A
5:20 PM64 °FBroken clouds.5 mph64%29.98 "HgN/A
4:50 PM64 °FBroken clouds.2 mph56%29.98 "HgN/A
4:20 PM64 °FPartly sunny.7 mph60%30.01 "HgN/A
3:50 PM64 °FPartly sunny.3 mph64%30.01 "HgN/A
3:20 PM64 °FBroken clouds.6 mph64%29.98 "HgN/A
2:50 PM64 °FPartly sunny.3 mph64%30.01 "HgN/A
2:20 PM64 °FBroken clouds.5 mph64%30.01 "HgN/A
1:50 PM64 °FBroken clouds.5 mph60%30.01 "HgN/A
1:20 PM63 °FBroken clouds.5 mph59%30.01 "HgN/A
Weather by CustomWeather, © 2015

See weather overviewHow to use our weather pages